FW4581 Weather Reports


time (UTC)temp
F
wind
direction
speed
knots
gust
knots
rain 1hr
in
rain 24hr
in
rain mn
in
humidity
%
barometer
mb
20260506160011 72 174 0.9 6.1 0.00 0.00 0.00 77 1015.8
20260506154503 71 114 0.9 3.5 0.00 0.00 0.00 78 1015.8
20260506153002 71 317 0.9 3.5 0.00 0.00 0.00 77 1015.7
20260506151502 71 148 0.9 4.3 0.00 0.00 0.00 77 1015.3
20260506143054 69 163 0.9 2.6 0.00 0.00 0.00 80 1015.3
20260506141555 68 190 0.9 7.0 0.00 0.00 0.00 81 1015.2
20260506140055 67 233 0.9 2.6 0.00 0.00 0.00 81 1015.2
20260506133045 67 161 0.9 5.2 0.00 0.00 0.00 81 1015.2
20260506131542 66 229 1.7 7.0 0.00 0.00 0.00 80 1015.1
20260506130039 65 178 0.9 5.2 0.00 0.00 0.00 80 1015.2
20260506123035 65 150 1.7 5.2 0.00 0.00 0.00 80 1015.2
20260506121532 65 149 0.9 6.1 0.00 0.00 0.00 80 1015.3
20260506120032 64 219 0.0 7.0 0.00 0.00 0.00 80 1015.1
20260506113025 64 148 0.0 4.3 0.00 0.00 0.00 80 1014.5
20260506111526 64 213 1.7 7.0 0.00 0.00 0.00 81 1014.2
20260506110019 63 184 1.7 6.1 0.00 0.00 0.00 81 1014.2
20260506103020 63 266 1.7 7.0 0.00 0.00 0.00 81 1014.1
20260506101517 63 90 0.9 7.0 0.00 0.00 0.00 81 1014.0
20260506100011 63 156 0.9 7.0 0.00 0.00 0.00 81 1014.0
20260506093014 62 151 0.9 3.5 0.00 0.00 0.00 82 1014.1
20260506091515 62 144 0.9 3.5 0.00 0.00 0.00 82 1014.2
20260506090011 63 146 0.9 3.5 0.00 0.00 0.00 81 1014.5
20260506083010 63 185 0.9 6.1 0.00 0.00 0.00 81 1014.6
20260506081510 63 177 1.7 6.1 0.00 0.00 0.00 81 1014.9
20260506073010 63 233 0.9 6.1 0.00 0.00 0.00 80 1014.9
20260506071508 63 217 0.0 3.5 0.00 0.00 0.00 81 1014.7
20260506061510 64 94 1.7 7.0 0.00 0.00 0.00 78 1015.0
20260506043005 66 205 2.6 7.0 0.00 0.00 0.00 72 1015.4
20260506041504 66 152 0.9 7.0 0.00 0.00 0.00 71 1015.4
20260506040004 66 196 1.7 5.2 0.00 0.00 0.00 70 1015.3
20260506033002 67 154 0.0 4.3 0.00 0.00 0.00 68 1015.3
20260506031501 68 201 1.7 7.0 0.00 0.00 0.00 66 1015.1
20260506030000 68 169 1.7 6.1 0.00 0.00 0.00 66 1015.2
20260506023100 69 199 0.0 6.1 0.00 0.00 0.00 67 1015.0
20260506021559 69 160 0.9 4.3 0.00 0.00 0.00 66 1015.1
20260506020123 68 213 0.9 6.1 0.00 0.00 0.00 66 1015.2
20260506013059 65 184 0.0 0.0 0.00 0.00 0.00 66 1014.7
20260506011601 66 184 0.0 0.0 0.00 0.00 0.00 64 1014.7
20260506010058 67 184 0.0 0.0 0.00 0.00 0.00 63 1014.5
20260506003058 70 184 0.0 1.7 0.00 0.00 0.00 58 1014.0
20260506001607 72 184 0.0 0.0 0.00 0.00 0.00 55 1013.7
20260506000122 73 184 0.0 1.7 0.00 0.00 0.00 52 1013.8
20260505233056 76 187 0.9 5.2 0.00 0.00 0.00 46 1013.8
20260505231558 77 189 0.0 5.2 0.00 0.00 0.00 45 1013.8
20260505230054 77 139 0.9 2.6 0.00 0.00 0.00 45 1013.9
20260505223053 79 229 0.0 2.6 0.00 0.00 0.00 45 1014.0
20260505221558 79 165 0.9 6.1 0.00 0.00 0.00 42 1013.9
20260505220105 79 152 0.9 5.2 0.00 0.00 0.00 41 1014.0
20260505213049 80 191 0.9 6.1 0.00 0.00 0.00 42 1014.2
20260505211616 80 185 1.7 7.8 0.00 0.00 0.00 42 1014.3
20260505210047 80 91 1.7 8.7 0.00 0.00 0.00 40 1014.3
20260505203046 81 243 0.9 6.1 0.00 0.00 0.00 44 1014.6
20260505201545 81 167 2.6 6.1 0.00 0.00 0.00 41 1014.6
20260505200044 80 238 2.6 7.0 0.00 0.00 0.00 40 1014.8
20260505193040 81 336 0.9 7.0 0.00 0.00 0.00 40 1015.1
20260505191539 80 186 2.6 7.0 0.00 0.00 0.00 43 1015.3
20260505190036 80 185 1.7 7.8 0.00 0.00 0.00 42 1015.4
20260505183034 81 125 0.9 9.6 0.00 0.00 0.00 41 1016.3
20260505181544 80 134 1.7 6.1 0.00 0.00 0.00 45 1016.5
20260505180032 80 147 1.7 7.8 0.00 0.00 0.00 43 1016.5
20260505173029 79 207 1.7 12.2 0.00 0.00 0.00 44 1016.2
20260505171537 79 138 2.6 7.8 0.00 0.00 0.00 45 1016.4
20260505170027 78 360 2.6 7.0 0.00 0.00 0.00 50 1016.5
20260505163025 79 230 0.0 7.0 0.00 0.00 0.00 53 1016.9
20260505161523 79 150 0.9 5.2 0.00 0.00 0.00 55 1017.0